Skip Page Navigation
NASA JPL Caltech
NASA Logo - Jet Propulsion Laboratory + View the NASA Portal
+ Center for Near-Earth Object Studies
JPL Home Earth Solar System Stars & Galaxies Technology
JPL Solar System Dynamics
BODIES ORBITS EPHEMERIDES TOOLS PHYSICAL DATA DISCOVERY FAQ SITE MAP
JPL Small-Body Database Browser
Search: [ help ]  
1234 Elyna (1931 UF)
Classification: Main-belt Asteroid          SPK-ID: 2001234
Ephemeris | Orbit Diagram | Orbital Elements | Mission Design | Physical Parameters | Discovery Circumstances | Close-Approach Data ]

[ show orbit diagram ]
Orbital Elements at Epoch 2459000.5 (2020-May-31.0) TDB
Reference: JPL 35 (heliocentric ecliptic J2000)
 Element Value Uncertainty (1-sigma)   Units 
e .08636982354434015 3.2473e-08  
a 3.012656046691438 1.2536e-08 au
q 2.75245347553891 1.0039e-07 au
i 8.529281543163608 4.3357e-06 deg
node 304.3511597605155 2.4246e-05 deg
peri 89.94498702641162 3.5262e-05 deg
M 334.2859709082088 2.5822e-05 deg
tp 2459136.923875910355
(2020-Oct-14.42387591)
0.00013712 TDB
period 1909.953323627767
5.23
1.1921e-05
3.264e-08
d
yr
n .1884862815999166 1.1764e-09 deg/d
Q 3.272858617843967 1.3618e-08 au
  Orbit Determination Parameters
   # obs. used (total)      2654  
   data-arc span      32481 days (88.93 yr)  
   first obs. used      1931-10-18  
   last obs. used      2020-09-21  
   planetary ephem.      DE431  
   SB-pert. ephem.      SB431-N16  
   condition code      0  
   norm. resid. RMS      .42643  
   source      ORB  
   producer      Otto Matic  
   solution date      2020-Oct-22 15:32:02  

Additional Information
 Earth MOID = 1.77577 au 
 Jupiter MOID = 2.10771 au 
 T_jup = 3.227 
[ show covariance matrix ]

Ephemeris | Orbit Diagram | Orbital Elements | Mission Design | Physical Parameters | Discovery Circumstances | Close-Approach Data ]

Physical Parameter Table
Parameter Symbol Value Units Sigma Reference Notes
absolute magnitude H 10.8   n/a MPO452176  
diameter diameter 22.876 km 0.465 urn:nasa:pds:neowise_diameters_albedos::2.0[mainbelt] (http://adsabs.harvard.edu/abs/2012ApJ...759L...8M)  
rotation period rot_per 5.4221 h n/a LCDB (Rev. 2019-August); Warner et al., 2009 Published Reference List:
[Behrend, R. (2005) Observatoire de Geneve web site, http://obswww.unige.ch/~behrend/page_cou.html]
[Behrend, R. (2015) Observatoire de Geneve web site, http://obswww.unige.ch/~behrend/page_cou.html]
[Aznar Macias, A.; Carreno Garcerain, A.; Arce Masego, E.; Brines Rodriques, P.; et al. (2016) Minor Planet Bull. 43, 257-263.]
geometric albedo albedo 0.162   0.031 urn:nasa:pds:neowise_diameters_albedos::2.0[mainbelt] (http://adsabs.harvard.edu/abs/2012ApJ...759L...8M)  
SMASSII spectral type spec_B K   n/a EAR-A-5-DDR-TAXONOMY-V4.0 based on a high-resolution spectrum by Xu et al. (1995) or Bus and Binzel (2002)

1234 Elyna (1931 UF)          Discovered 1931-Oct-18 by Reinmuth, K. at Heidelberg
Reference: DISCOVERY.DBLast Updated: 2003-08-29

[ show close-approach data ]
Alternate Designations
 1931 UF = 1933 BN 
Ephemeris | Orbit Diagram | Orbital Elements | Mission Design | Physical Parameters | Discovery Circumstances | Close-Approach Data ]
ABOUT SSD CREDITS/AWARDS PRIVACY/COPYRIGHT GLOSSARY LINKS
FirstGov 2020-Oct-25 06:24 UT
(server date/time)  
NASA Home Page
Site Manager:   Ryan S. Park
Webmaster  Alan B. Chamberlin